Location: Wildlife_Club
(35.6000°N, 81.4330°W)
Time: 21:39:06
(UTC-04:00)

Transit 2A - All Passes

Search period start: 24 June 2019 00:00
Search period end: 04 July 2019 00:00
Orbit: 593 x 966 km, 66.7° (Epoch: 23 June)

Date Brightness Start Highest point End Pass type
(mag) Time Alt. Az. Time Alt. Az. Time Alt. Az.
24 Jun - 00:15:56 10° S 00:21:54 46° ESE 00:27:56 10° NE visible
24 Jun - 01:59:50 10° WSW 02:05:20 30° NW 02:10:48 10° N visible
24 Jun - 09:07:40 10° N 09:11:35 20° NE 09:15:15 10° E daylight
24 Jun - 10:50:01 10° NW 10:55:13 52° WSW 10:59:52 10° S daylight
24 Jun - 23:42:28 10° SSE 23:47:56 32° ESE 23:53:27 10° NE visible
25 Jun - 01:25:05 10° SW 01:31:03 41° WNW 01:36:59 10° NNE visible
25 Jun - 08:34:22 10° NNE 08:37:09 14° NE 08:39:48 10° ENE daylight
25 Jun - 10:15:48 10° NNW 10:21:11 81° WSW 10:25:59 10° SSE daylight
25 Jun - 23:09:21 10° SSE 23:14:01 22° ESE 23:18:43 10° ENE visible
26 Jun - 00:50:35 10° SW 00:56:50 58° WNW 01:03:04 10° NNE visible
26 Jun - 02:39:48 10° NW 02:41:21 11° NW 02:42:55 10° NNW visible
26 Jun - 09:41:42 10° NNW 09:47:05 66° ENE 09:51:52 10° SE daylight
26 Jun - 11:27:39 10° W 11:29:24 12° W 11:31:05 10° WSW daylight
26 Jun - 22:36:54 10° SE 22:40:10 15° ESE 22:43:27 10° ENE visible
27 Jun - 00:16:19 10° SSW 00:22:40 81° WNW 00:29:01 10° NNE visible
27 Jun - 02:03:18 10° W 02:06:50 15° NW 02:10:21 10° N visible
27 Jun - 09:07:44 10° NNW 09:12:54 43° ENE 09:17:31 10° SE daylight
27 Jun - 10:52:00 10° WNW 10:55:35 19° WSW 10:58:56 10° SSW daylight
27 Jun - 23:42:16 10° SSW 23:48:35 72° ESE 23:54:54 10° NNE visible
28 Jun - 01:27:46 10° W 01:32:24 21° NW 01:36:59 10° N visible
28 Jun - 08:33:54 10° N 08:38:37 29° NE 08:42:54 10° ESE daylight
28 Jun - 10:17:13 10° NW 10:21:43 30° WSW 10:25:49 10° SSW daylight
28 Jun - 23:08:28 10° S 23:14:33 50° ESE 23:20:38 10° NE visible
29 Jun - 00:52:40 10° WSW 00:58:02 28° NW 01:03:21 10° N visible
29 Jun - 08:00:14 10° N 08:04:16 21° NE 08:07:59 10° E daylight
29 Jun - 09:42:45 10° NW 09:47:47 46° WSW 09:52:18 10° S daylight
29 Jun - 22:34:56 10° S 22:40:33 35° ESE 22:46:12 10° NE visible
30 Jun - 00:17:52 10° WSW 00:23:44 38° NW 00:29:34 10° NNE visible
30 Jun - 07:26:52 10° NNE 07:29:50 15° NE 07:32:38 10° E daylight
30 Jun - 09:08:28 10° NNW 09:13:46 74° WSW 09:18:29 10° SSE daylight
30 Jun - 22:01:44 10° SSE 22:06:38 24° ESE 22:11:32 10° NE visible
30 Jun - 23:43:18 10° SW 23:49:31 54° WNW 23:55:40 10° NNE visible
01 Jul - 06:54:41 10° NNE 06:55:19 10° NE 06:55:58 10° NE daylight
01 Jul - 08:34:21 10° NNW 08:39:41 72° ENE 08:44:26 10° SSE daylight
01 Jul - 10:21:28 10° W 10:21:54 10° W 10:22:22 10° WSW daylight
01 Jul - 21:29:05 10° SE 21:32:45 16° ESE 21:36:26 10° ENE visible
01 Jul - 23:08:59 10° SSW 23:15:21 76° WNW 23:21:40 10° NNE visible
02 Jul - 00:56:23 10° WNW 00:59:34 14° NW 01:02:44 10° NNW visible
02 Jul - 08:00:21 10° NNW 08:05:30 47° ENE 08:10:07 10° SE daylight
02 Jul - 09:44:54 10° WNW 09:48:07 17° WSW 09:51:08 10° SW daylight
02 Jul - 22:34:53 10° SSW 22:41:14 78° ESE 22:47:32 10° NNE visible
03 Jul - 00:20:42 10° W 00:25:07 19° NW 00:29:28 10° N visible
03 Jul - 07:26:29 10° N 07:31:15 31° NE 07:35:33 10° ESE daylight
03 Jul - 09:10:00 10° NW 09:14:15 26° WSW 09:18:10 10° SSW daylight
03 Jul - 22:01:02 10° S 22:07:11 54° ESE 22:13:18 10° NE visible
03 Jul - 23:45:31 10° WSW 23:50:44 26° NW 23:55:53 10° N visible
